Preview of NWS' New Version of Forecast
This preview is not operational and should not be used for support decisions.

Regional Weather Roundup (RWR)

Issued by National Weather Service (NWS)

                            
000
ASUS46 KPQR 210210
RWROR 

OREGON REGIONAL WEATHER ROUNDUP
NATIONAL WEATHER SERVICE PORTLAND OR
600 PM PST WED FEB 20 2019

NOTE: "FAIR" INDICATES FEW OR NO CLOUDS BELOW 12,000 FEET WITH
NO SIGNIFICANT WEATHER AND/OR OBSTRUCTIONS TO VISIBILITY.

ORZ001>013-210300-
NORTHWEST OREGON

  
CITY           SKY/WX    TMP DP  RH WIND       PRES   REMARKS
ASTORIA        PTCLDY    41  35  79 N6        29.84R                  
TILLAMOOK      PTCLDY    41  36  81 W3        29.85S                  
NEWPORT        MOCLDY    43  36  75 N9        29.87S                  
PORTLAND       LGT RAIN  41  36  82 E7        29.83S                  
VANCOUVER WA   MOCLDY    42  36  79 SE5       29.83R                  
SCAPPOOSE      MOCLDY    41  36  82 NW5       29.84R                  
HILLSBORO      LGT RAIN  39  34  82 NE5       29.82S                  
AURORA         PTCLDY    39  36  89 CALM      29.84R                  
MCMINNVILLE    CLOUDY    34  34 100 W3        29.83R                  
SALEM          MOCLDY    37  34  89 W3        29.82F                  
CORVALLIS      LGT RAIN  39  35  86 N9        29.84R                  
EUGENE         MOCLDY    37  34  89 S7        29.84R                  
$$

ORZ021-028-210300-
SOUTHWEST OREGON

  
CITY           SKY/WX    TMP DP  RH WIND       PRES   REMARKS
NORTH BEND     MOCLDY    39  37  92 E3        29.88S                  
BROOKINGS      LGT RAIN  40  38  93 CALM      29.86F                  
ROSEBURG       CLOUDY    38  36  92 CALM      29.83S                  
SEXTON SUMMIT  HVY SNOW  28  27  96 CALM      29.70F VSB 1/4          
GRANTS PASS    LGT RAIN  36  34  93 CALM      29.83                   
MEDFORD        MOCLDY    37  33  85 NW6       29.79S                  
$$

ORZ014>016-041-210300-
COLUMBIA GORGE

  
CITY           SKY/WX    TMP DP  RH WIND       PRES   REMARKS
TROUTDALE      LGT RAIN  41  35  79 CALM      29.84R                  
HOOD RIVER     CLOUDY    34  30  86 N5        29.84R                  
THE DALLES     CLOUDY    33  28  81 E10       29.88R WCI  25          
$$

ORZ029>031-041-044-049-050-061>064-502-503-505>511-210300-
EASTERN OREGON

  
CITY           SKY/WX    TMP DP  RH WIND       PRES   REMARKS
MADRAS         NOT AVBL                                               
REDMOND        LGT SNOW  31  25  78 N9        29.71R                  
BEND           SNOW      28  27  93 N5G13     29.69S VSB 1/4          
PRINEVILLE     CLOUDY    30  23  74 NW9       29.70                   
KLAMATH FALLS  FLURRIES  28  25  88 SW3       29.66F                  
LAKEVIEW       FLURRIES  25  21  85 CALM      29.63S                  
HERMISTON      MOCLDY    31  24  75 N3        29.86R                  
PENDLETON      FLURRIES  28  23  81 NE3       29.81R                  
JOHN DAY       CLOUDY    30  25  82 W5        29.67                   
MEACHAM        CLOUDY    23  20  88 CALM      29.69R                  
LA GRANDE      CLOUDY    29  23  78 NW12      29.72R WCI  19          
BAKER CITY     MOCLDY    29  22  75 N10G22    29.67R WCI  20          
BURNS          CLOUDY    26  21  81 W5        29.63S                  
ROME             N/A     29  20  69 NW7       29.61S                  
ONTARIO        CLOUDY    35  29  78 CALM      29.71R                  
$$